Location: ???????
(55.4362°N, 38.1183°E)
Time: 17:38:18
(UTC+00:00)

Cosmos 1634 Rocket - Pass Details

Date: 17 June 2021
Orbit: 960 x 991 km, 82.9° (Epoch: 29 July)

Event Time Altitude Azimuth Distance (km) Brightness Sun altitude
Rises 21:13:01 0° 348° (NNW) 3,703 9.1 -11.1°
Reaches altitude 10° 21:15:34 10° 351° (N) 2,755 7.9 -11.1°
Maximum altitude 21:21:52 69° 75° (ENE) 1,059 4.3 -11.1°
Enters shadow 21:27:47 12° 158° (SSE) 2,606 5.7 -11.2°
